• Processing (Info)

  • MPEC 2022-U294 : 2022 UL11

    The following Minor Planet Electronic Circular may be linked-to from your own Web pages, but must not otherwise be redistributed electronically.

    A form allowing access to any MPEC is at the bottom of this page.


    Read MPEC 2022-U293 Read MPEC 2022-U295


    M.P.E.C. 2022-U294                             Issued 2022 October 27, 11:04 UT
    
         The Minor Planet Electronic Circulars contain information on unusual
             minor planets and routine data on comets.  They are published
        on behalf of Division F of the International Astronomical Union by the
              Minor Planet Center, Smithsonian Astrophysical Observatory,
                              Cambridge, MA 02138, U.S.A.
    
                 Prepared using the Tamkin Foundation Computer Network
    
                                  MPC@CFA.HARVARD.EDU
                URL https://www.minorplanetcenter.net/    ISSN 1523-6714
    
                                    2022 UL11                                
    
    
    Observations:
         K22U11L* C2022 10 26.47700201 52 08.83 +02 06 46.3          17.9 GXEU294381
         K22U11L  C2022 10 26.47709501 52 06.84 +02 06 31.7          16.9 GXEU294381
         K22U11L  C2022 10 26.49115701 47 25.97 +01 30 24.1                XEU294381
         K22U11L  C2022 10 26.49121501 47 24.77 +01 30 14.1                XEU294381
         K22U11L  C2022 10 26.55711801 25 58.09 -01 14 41.3                XEU294381
         K22U11L  C2022 10 26.55721101 25 56.49 -01 14 53.7                XEU294381
         K22U11L KC2022 10 26.58918201 16 01.56 -02 30 42.5          17.5 GVEU294900
         K22U11L KC2022 10 26.59048301 15 37.63 -02 33 45.6          17.6 GVEU294900
         K22U11L  C2022 10 26.59133 01 15 28.04 -02 35 30.9          18.2 RrEU294P93
         K22U11L  C2022 10 26.59174 01 15 20.49 -02 36 28.6          18.5 RrEU294P93
         K22U11L KC2022 10 26.59178401 15 13.65 -02 36 47.2          17.4 GVEU294900
         K22U11L  C2022 10 26.59256 01 15 05.41 -02 38 23.6          18.5 RrEU294P93
         K22U11L  C2022 10 26.59297 01 14 57.90 -02 39 20.7          18.3 RrEU294P93
         K22U11L  C2022 10 26.62958301 03 50.56 -04 03 10.2          18.1 GXEU294381
         K22U11L  C2022 10 26.62968701 03 48.85 -04 03 23.9                XEU294381
         K22U11L hC2022 10 26.76859700 30 40.35 -08 43 20.3          18.0 GVEU294L01
         K22U11L hC2022 10 26.77016100 30 17.65 -08 46 06.6          17.9 GVEU294L01
         K22U11L hC2022 10 26.77094200 30 06.33 -08 47 29.2          18.3 GVEU294L01
         K22U11L hC2022 10 26.77189400 29 52.59 -08 49 09.5          18.0 GVEU294L01
         K22U11L hC2022 10 26.77275600 29 40.05 -08 50 41.5          18.4 GVEU294L01
         K22U11L hC2022 10 26.77284700 29 38.71 -08 50 51.1          18.2 GVEU294L01
         K22U11L hC2022 10 26.77375900 29 25.59 -08 52 26.7          18.3 GVEU294L01
         K22U11L hC2022 10 26.77460700 29 13.33 -08 53 55.8          18.3 GVEU294L01
         K22U11L KC2022 10 26.79622300 24 05.474-09 32 37.75         18.7 GXEU294K74
         K22U11L KC2022 10 26.81145600 20 34.058-09 57 51.41         19.5 GXEU294K74
         K22U11L KC2022 10 26.82732100 16 58.133-10 23 19.68         18.6 GXEU294K74
         K22U11L KC2022 10 26.88482700 04 51.252-11 49 19.56         18.0 GVEU294J95
         K22U11L KC2022 10 26.88914200 03 57.871-11 55 22.19         18.4 GVEU294J95
         K22U11L KC2022 10 26.89105700 03 17.56 -11 56 20.8          18.6 GVEU294204
         K22U11L KC2022 10 26.89274600 03 13.450-12 00 21.92         18.4 GVEU294J95
         K22U11L KC2022 10 26.89700200 02 04.25 -12 04 31.0                VEU294204
         K22U11L KC2022 10 26.90770200 00 10.96 -12 18 17.3          17.5 GXEU294958
         K22U11L KC2022 10 26.90852600 00 00.98 -12 19 25.9          17.0 GXEU294958
         K22U11L KC2022 10 26.90933823 59 51.14 -12 20 31.5          17.4 GXEU294958
         K22U11L KC2022 10 26.94165323 53 14.49 -13 02 30.1          17.9 GVEU294L06
         K22U11L  C2022 10 26.94228623 53 07.34 -13 03 17.1          17.7 GVEU294L06
         K22U11L KC2022 10 26.95578923 52 15.031-12 46 45.92               XEU294Y00
         K22U11L KC2022 10 26.95797723 51 49.912-12 49 31.62               XEU294Y00
         K22U11L KC2022 10 26.96047723 51 21.308-12 52 40.80               XEU294Y00
         K22U11L KC2022 10 27.16503423 19 43.648-16 43 46.81         18.64GVEU294I52
         K22U11L KC2022 10 27.16544323 19 40.184-16 44 06.68         18.88GVEU294I52
         K22U11L KC2022 10 27.16585323 19 36.696-16 44 26.56         19.09GVEU294I52
         K22U11L KC2022 10 27.16626223 19 33.211-16 44 46.32         19.06GVEU294I52
    
    Observer details:
    204 Schiaparelli Observatory.  Observer L. Buzzi.  0.84-m f/3.5 reflector +
        CCD.
    381 Tokyo-Kiso.  Observer J. Beniyama.  1.05-m f/3.1 Schmidt + CCD.
    900 Moriyama.  Observer Y. Ikari.  0.26-mf/7.0 reflector + CCD.
    958 Observatoire de Dax.  Observers P. Dupouy, J. B. de Vanssay.  Measurer P.
        Dupouy.  0.43-m f/2.7 Reflector + CCD.
    I52 Steward Observatory, Mt. Lemmon Station.  Observer G. J. Leonard.
        Measurers E. J. Christensen, D. Fay, J. B. Fazekas, D. C. Fuls, A. R.
        Gibbs, A. D. Grauer, H. Groeller, J. K. Hogan, R. A. Kowalski, S. M.
        Larson, G. J. Leonard, D. Rankin, R. L. Seaman, A. Serrano, F. C. Shelly,
        K. W. Wierzchos.  1.0-m prime focus + CCD.
    J95 Great Shefford.  Observer P. Birtwhistle.  0.41-m f/6.3 Schmidt-Cassegrain
        + CCD.
    K74 Muensterschwarzach Observatory, Schwarzach.  Observer C. Gerhard.  0.30-m
        f/3.75 reflector + CCD.
    L01 Visnjan Observatory, Tican.  Observer K. Korlevic.  1.0-m f/2.9 reflector
        + CCD.
    L06 Sormano 2 Observatory, Bellagio Via Lattea.  Observer G. Ventre.  Measurer
        P. Sicoli.  0.36m Schmidt Cassegrain + CCD.
    P93 Space Tracking and Communications Center, JAXA.  Observers K. Nishiyama,
        S. Okumura.  1.0-m f/3.0 reflector + CCD.
    Y00 SONEAR Observatory, Oliveira.  Observer C. Jacques.  0.45-m f/2.9
        reflector + CCD.
    
    Orbital elements:
    2022 UL11                                                Earth MOID = 0.0029 AU
    Epoch 2022 Aug. 9.0 TT = JDT 2459800.5                  Veres                   
    M  36.83962              (2000.0)            P               Q                  
    n   1.79801847     Peri.    1.23052     -0.83375589     +0.55107059             
    a   0.6697920      Node   212.28542     -0.50711835     -0.78883201             
    e   0.4891624      Incl.    3.67529     -0.21836232     -0.27214935             
    P   0.55           H   29.16          G   0.15           U   7                  
    Residuals in seconds of arc
    221026 381  0.3-  0.0     221026 L01  0.7-  0.1+    221026 204  0.2-  0.0
    221026 381  2.2-  0.2-    221026 L01  0.4-  0.0     221026 958  0.3+  0.9+
    221026 381  0.8+  0.9+    221026 L01  0.2-  0.3+    221026 958  0.3+  1.5-
    221026 381  0.1+  0.1-    221026 L01  0.7+  0.7+    221026 958  0.1+  2.0-
    221026 381  2.9-  1.5-    221026 L01  0.1-  0.1-    221026 L06  1.2-  0.1+
    221026 381  0.4-  0.3-    221026 L01  0.5-  0.1-    221026 L06  0.1-  0.0
    221026 900  1.1+  0.6+    221026 L01  0.6+  0.5+    221026 Y00  1.2-  0.8-
    221026 900  1.7+  0.1+    221026 L01  0.5+  0.7+    221026 Y00  1.8-  0.6-
    221026 P93  0.4-  0.0     221026 K74  0.0   0.7+    221026 Y00  2.3-  1.2-
    221026 P93  0.4-  0.3-    221026 K74  0.2-  0.2+    221027 I52  0.1+  0.1+
    221026 900  1.1+  0.8+    221026 K74  0.2+  0.2-    221027 I52  0.2+  0.0
    221026 P93  0.4-  0.5-    221026 J95  0.2-  0.5+    221027 I52  0.0   0.1-
    221026 P93  0.0   0.2-    221026 J95  0.4+  0.2-    221027 I52  0.2-  0.1-
    221026 381  2.6-  1.2-    221026 204  0.5+  0.3+
    221026 381  1.0-  1.1-    221026 J95  0.1-  0.2-
    
    Ephemeris:
    2022 UL11                a,e,i = 0.67, 0.49, 4                   q = 0.3422
    Date    TT    R. A. (2000) Decl.     Delta      r    Elong.  Phase     V
    2022 09 27    08 53 18.2 +26 30 34   0.1448  0.9285    55.6   117.0    29.4
    ...
    2022 10 12    08 40 14.6 +27 16 09   0.07257 0.9796    73.2   102.8    27.2
    ...
    2022 10 20    08 25 36.3 +27 42 06   0.03256 0.9932    84.3    93.9    25.1
    ...
    2022 10 26    04 25 40.4 +20 23 21   0.0036160.9973   144.2    35.6    18.4
    2022 10 27    23 43 57.6 -13 43 10   0.0045610.9974   136.4    43.4    19.1
    2022 10 28    22 13 29.0 -22 18 44   0.0089990.9973   112.6    66.9    21.3
    ...
    2022 11 03    21 06 18.5 -26 16 47   0.03908 0.9936    91.0    86.7    25.2
    ...
    2022 11 11    20 55 49.3 -26 42 47   0.07889 0.9806    80.7    94.7    27.0
    ...
    2022 11 26    20 46 12.1 -27 08 03   0.1495  0.9304    63.6   108.1    28.9
    
    M. P. C. Staff               (C) Copyright 2022 MPC           M.P.E.C. 2022-U294
    


    Read MPEC 2022-U293 Read MPEC 2022-U295


    MPEC number:

    Enter an MPEC number in one of the following forms:

    • 1997-B01 (the full form)
    • J97B01 (the packed version of the full form)
    • B01 (the abbreviated form)